EW5448 Weather Reports


Display with metric or nautical units.
time (UTC)temp
F
wind
direction
speed
MPH
gust
MPH
rain 1hr
in
rain 24hr
in
rain mn
in
humidity
%
barometer
mb
20260906041558 94 130 0.0 4.0 0.00 0.00 0.00 26 994.4
20260906040104 94 113 0.0 7.0 0.00 0.00 0.00 26 994.3
20260906034601 94 142 3.0 6.0 0.00 0.00 0.00 25 994.2
20260906033057 94 144 2.0 5.0 0.00 0.00 0.00 25 994.2
20260906031557 95 121 3.0 8.0 0.00 0.00 0.00 25 994.0
20260906030101 95 153 3.0 8.0 0.00 0.00 0.00 26 993.7
20260906024559 95 157 3.0 8.0 0.00 0.00 0.00 25 993.6
20260906023055 96 156 3.0 9.0 0.00 0.00 0.00 24 993.4
20260906021554 97 161 5.0 9.0 0.00 0.00 0.00 24 993.3
20260906020053 98 148 7.0 12.0 0.00 0.00 0.00 23 993.3
20260906014632 99 157 5.0 12.0 0.00 0.00 0.00 23 993.4
20260906013058 100 163 6.0 12.0 0.00 0.00 0.00 23 993.4
20260906011554 100 153 8.0 15.0 0.00 0.00 0.00 22 993.5
20260906010053 100 134 7.0 14.0 0.00 0.00 0.00 22 993.5
20260906004558 101 160 9.0 19.0 0.00 0.00 0.00 22 993.5
20260906003054 101 194 9.0 18.0 0.00 0.00 0.00 22 993.6
20260906001648 100 142 9.0 16.0 0.00 0.00 0.00 23 993.4
20260906000048 100 147 8.0 15.0 0.00 0.00 0.00 24 993.5
20260905234549 101 117 10.0 18.0 0.00 0.00 0.00 23 993.5
20260905233049 101 175 8.0 16.0 0.00 0.00 0.00 22 993.5
20260905231546 102 242 8.0 16.0 0.00 0.00 0.00 20 993.5
20260905230044 104 228 8.0 16.0 0.00 0.00 0.00 18 993.6
20260905224543 104 212 7.0 16.0 0.00 0.00 0.00 18 993.7
20260905223043 104 207 7.0 13.0 0.00 0.00 0.00 18 993.7
20260905221603 105 197 6.0 14.0 0.00 0.00 0.00 17 993.9
20260905220039 104 240 8.0 16.0 0.00 0.00 0.00 17 994.1
20260905214540 104 209 8.0 16.0 0.00 0.00 0.00 16 994.2
20260905213055 103 238 8.0 18.0 0.00 0.00 0.00 16 994.5
20260905211540 104 155 5.0 13.0 0.00 0.00 0.00 15 994.7
20260905210048 104 158 9.0 19.0 0.00 0.00 0.00 16 994.9
20260905204543 103 152 8.0 21.0 0.00 0.00 0.00 16 995.0
20260905203040 103 242 7.0 18.0 0.00 0.00 0.00 16 995.3
20260905201534 103 184 5.0 11.0 0.00 0.00 0.00 16 995.5
20260905200038 102 173 3.0 12.0 0.00 0.00 0.00 15 995.7
20260905194529 101 142 4.0 10.0 0.00 0.00 0.00 15 995.9
20260905193027 100 136 1.0 5.0 0.00 0.00 0.00 15 996.2
20260905191525 99 142 6.0 13.0 0.00 0.00 0.00 15 996.6
20260905190023 97 107 1.0 11.0 0.00 0.00 0.00 16 996.7
20260905184534 97 151 5.0 12.0 0.00 0.00 0.00 15 996.9
20260905183022 98 132 4.0 9.0 0.00 0.00 0.00 15 997.0
20260905181520 97 159 6.0 11.0 0.00 0.00 0.00 16 997.2
20260905180019 96 144 6.0 13.0 0.00 0.00 0.00 16 997.3
20260905174517 95 175 5.0 13.0 0.00 0.00 0.00 16 997.2
20260905173015 95 219 4.0 8.0 0.00 0.00 0.00 16 997.2
20260905171513 94 138 2.0 9.0 0.00 0.00 0.00 17 997.2
20260905170010 93 228 3.0 9.0 0.00 0.00 0.00 17 997.2
20260905164507 92 196 3.0 6.0 0.00 0.00 0.00 19 997.2
20260905163006 90 153 2.0 6.0 0.00 0.00 0.00 19 997.2
20260905161501 90 140 2.0 5.0 0.00 0.00 0.00 20 997.1
20260905160059 88 232 3.0 7.0 0.00 0.00 0.00 20 997.1
20260905154616 88 171 3.0 6.0 0.00 0.00 0.00 20 997.0
20260905153053 86 176 0.0 4.0 0.00 0.00 0.00 21 997.0
20260905151559 83 138 0.0 4.0 0.00 0.00 0.00 23 996.9
20260905150046 82 158 0.0 2.0 0.00 0.00 0.00 23 996.8
20260905144546 80 146 0.0 2.0 0.00 0.00 0.00 26 996.8
20260905143044 79 122 1.0 2.0 0.00 0.00 0.00 26 996.6
20260905141542 78 144 0.0 4.0 0.00 0.00 0.00 26 996.5
20260905140038 76 130 1.0 4.0 0.00 0.00 0.00 24 996.2
20260905134540 75 101 0.0 5.0 0.00 0.00 0.00 25 996.0
20260905133035 74 93 0.0 2.0 0.00 0.00 0.00 24 995.8
20260905131533 75 46 0.0 1.0 0.00 0.00 0.00 23 995.6
20260905130033 75 46 0.0 1.0 0.00 0.00 0.00 22 995.3
20260905124529 74 18 0.0 1.0 0.00 0.00 0.00 23 995.1
20260905123028 74 19 0.0 1.0 0.00 0.00 0.00 24 995.0
20260905121527 74 84 0.0 1.0 0.00 0.00 0.00 24 994.9
20260905120026 75 84 0.0 0.0 0.00 0.00 0.00 23 994.9
20260905114520 76 84 0.0 1.0 0.00 0.00 0.00 23 994.9
20260905113019 77 88 0.0 1.0 0.00 0.00 0.00 21 994.8
20260905111517 78 95 0.0 1.0 0.00 0.00 0.00 21 994.8
20260905110015 78 360 0.0 1.0 0.00 0.00 0.00 21 994.8
20260905104514 78 351 0.0 1.0 0.00 0.00 0.00 20 994.7
20260905103013 78 307 0.0 2.0 0.00 0.00 0.00 20 994.7
20260905101512 78 338 0.0 1.0 0.00 0.00 0.00 20 994.7
20260905100011 78 95 0.0 1.0 0.00 0.00 0.00 21 994.7
20260905094507 80 96 0.0 2.0 0.00 0.00 0.00 20 994.6
20260905093006 80 274 0.0 1.0 0.00 0.00 0.00 19 994.5
20260905091505 80 340 0.0 1.0 0.00 0.00 0.00 19 994.4
20260905090004 80 330 0.0 1.0 0.00 0.00 0.00 18 994.4
20260905084502 80 330 0.0 1.0 0.00 0.00 0.00 19 994.4
20260905083001 81 298 0.0 1.0 0.00 0.00 0.00 19 994.4
20260905081602 80 297 0.0 1.0 0.00 0.00 0.00 19 994.4
20260905080108 80 296 0.0 0.0 0.00 0.00 0.00 18 994.4
20260905074619 81 296 0.0 1.0 0.00 0.00 0.00 19 994.5
20260905073055 83 254 0.0 1.0 0.00 0.00 0.00 16 994.4
20260905071552 83 215 0.0 4.0 0.00 0.00 0.00 16 994.0
20260905070106 83 142 1.0 4.0 0.00 0.00 0.00 17 993.9
20260905064549 85 118 0.0 2.0 0.00 0.00 0.00 16 993.9
20260905063048 86 142 0.0 2.0 0.00 0.00 0.00 16 994.0
20260905061555 87 114 0.0 4.0 0.00 0.00 0.00 15 993.9
20260905060046 88 162 0.0 4.0 0.00 0.00 0.00 14 993.8
20260905054556 89 123 2.0 6.0 0.00 0.00 0.00 13 993.7
20260905053048 88 144 5.0 8.0 0.00 0.00 0.00 14 993.6
20260905051547 87 132 1.0 7.0 0.00 0.00 0.00 15 993.5
20260905050047 88 117 3.0 7.0 0.00 0.00 0.00 14 993.4
20260905044545 88 153 4.0 8.0 0.00 0.00 0.00 14 993.3
20260905043044 89 128 2.0 6.0 0.00 0.00 0.00 14 993.2